Weather in Polva

Estonia     58°03′25″N   27°04′01″E
temp.,
°C
wind,
m/s
gust,
m/s
humid.,
%
clouds,
%
prec.,
mm/h
press.,
hPa
HPBL,
m
4 august, wed
wed400:00+10w389055 0.0 1012156
03:00+11w258373 0.0 1013124
06:00+10wsw24842 0.0 101496
09:00+15wsw24605 0.0 1015771
12:00+19w344179 0.0 10152258
15:00+18nnw344999 0.0 1015758
18:00+19wnw124442 0.0 10151284
21:00+14e0064100 0.0 101511
5 august, thu
thu500:00+11sse117128 0.0 101712
03:00+11e117158 0.0 101612
06:00+10e117721 0.0 101612
09:00+17e23565 0.0 1016487
12:00+20ene443743 0.0 10162204
15:00+20ene433675 0.0 10152293
18:00+19ene344068 0.0 10151704
21:00+14ene22725 0.0 101534
6 august, fri
fri600:00+10ne11876 0.0 101511
03:00+10ne22915 0.0 101531
06:00+10nne249618 0.0 101698
09:00+16ne476638 0.0 1014867
12:00+20ene6948100 0.0 10131847
15:00+20ne5950100 0.0 10121966
18:00+19ene5957100 0.0 10111596
21:00+16ene4978100 0.1 1011722
7 august, sat
sat700:00+15ene51186100 0.0 1010664
03:00+14ne51196100 0.6 1008585
06:00+14ne41198100 0.4 1007658
09:00+15ene41198100 0.6 1006646
12:00+16e3998100 0.1 1006490
15:00+18e2798100 0.6 1006396
18:00+21se468069 0.6 1006873
21:00+17s379390 0.8 1007385
8 august, sun
sun800:00+16s3798100 0.1 1008450
03:00+15wsw4998100 0.6 1009428
06:00+14sw389759 0.0 1011343
09:00+16wsw4891100 0.0 1012613
12:00+20wsw446377 0.1 10131171
15:00+23sw344797 0.1 10131413
18:00+24sw2446100 0.0 10131601
21:00+18s227395 0.0 101426